New Bern, NC

5:17 AM EST on December 09, 2019 (GMT -0500)
Craven County Regional

Weather History for KEWN - August, 2019

Change the Weather History Date:

Sunday, August 11, 2019

  Actual Average Record
Temperature  
Mean Temperature 80 °F 80 °F  
Max Temperature 88 °F 89 °F 96 °F (1957)
Min Temperature 72 °F 71 °F 59 °F (2002)
Degree Days  
Heating Degree Days 0 0  
Month to date heating degree days 0 0  
Since 1 June heating degree days 0 1  
Since 1 July heating degree days 0 0  
Cooling Degree Days 15 15  
Month to date cooling degree days 173 165  
Year to date cooling degree days 1492 1255  
Since 1 June cooling degree days 1073 1012  
Growing Degree Days 30 (Base 50)    
Moisture  
Dew Point 72 °F    
Average Humidity 81    
Maximum Humidity 100    
Minimum Humidity 59    
Precipitation  
Precipitation 0.00 in 0.23 in 4.93 in (1955)
Month to date precipitation 3.38 2.47  
Year to date precipitation 26.32 32.62  
Snow  
Snow 0.00 in - - ()
Month to date snowfall 0.0  
Since 1 July snowfall 0.0  
Snow Depth 0.00 in    
Sea Level Pressure  
Sea Level Pressure 29.98 in    
Wind  
Wind Speed 5 mph ()    
Max Wind Speed 15 mph    
Max Gust Speed 20 mph    
Visibility 9.7 miles    
Events      
T = Trace of Precipitation, MM = Missing Value Source: Averaged Metar Reports

Daily Weather History Graph

Daily Weather History Graph

Search for Another Location

Airport or City:

Astronomy

Aug. 11, 2019 Rise Set
Actual Time 6:24 AM EDT 8:01 PM EDT
Civil Twilight 5:57 AM EDT 8:28 PM EDT
Nautical Twilight 5:25 AM EDT 9:00 PM EDT
Astronomical Twilight 4:50 AM EDT 9:35 PM EDT
Moon 5:33 PM EDT (8/11) 2:48 AM EDT (8/11)
Length of Visible Light 14h 30m
Length of Day
13h 36m
Waxing Gibbous, 87% of the Moon is Illuminated
Aug 11
Waxing Gibbous
Aug 15
Full
Aug 23
Last Quarter
Aug 30
New
Sep 5
First Quarter

Hourly Weather History & Observations

Time (EDT) Temp. Heat Index Dew Point Humidity Pressure Visibility Wind Dir Wind Speed Gust Speed Precip Events Conditions
12:54 AM 73.9 °F - 73.0 °F 97% 29.94 in 10.0 mi NE 5.8 mph - N/A   Overcast
1:54 AM 73.9 °F - 73.0 °F 97% 29.94 in 8.0 mi Calm Calm - N/A   Scattered Clouds
2:05 AM 73.9 °F - 73.0 °F 97% 29.93 in 8.0 mi Calm Calm - N/A   Mostly Cloudy
2:27 AM 73.9 °F - 73.9 °F 100% 29.93 in 9.0 mi NE 5.8 mph - N/A   Overcast
2:54 AM 75.0 °F - 73.9 °F 96% 29.92 in 9.0 mi ENE 5.8 mph - N/A   Overcast
3:54 AM 75.0 °F - 75.0 °F 100% 29.94 in 8.0 mi Calm Calm - N/A   Overcast
4:54 AM 73.0 °F - 73.0 °F 100% 29.94 in 10.0 mi Calm Calm - N/A   Clear
5:54 AM 73.9 °F - 73.0 °F 97% 29.94 in 10.0 mi NE 3.5 mph - N/A   Clear
6:54 AM 73.9 °F - 73.9 °F 100% 29.97 in 10.0 mi NE 3.5 mph - N/A   Mostly Cloudy
7:54 AM 77.0 °F - 73.9 °F 90% 30.00 in 10.0 mi ENE 8.1 mph - N/A   Scattered Clouds
8:54 AM 79.0 °F - 75.0 °F 88% 30.00 in 10.0 mi East 6.9 mph - N/A   Partly Cloudy
9:54 AM 82.9 °F 88.0 °F 72.0 °F 69% 30.01 in 10.0 mi ENE 13.8 mph 19.6 mph N/A   Clear
10:54 AM 84.0 °F 89.0 °F 71.1 °F 65% 30.02 in 10.0 mi East 8.1 mph - N/A   Scattered Clouds
11:54 AM 86.0 °F 92.2 °F 72.0 °F 63% 30.03 in 10.0 mi East 8.1 mph - N/A   Partly Cloudy
12:54 PM 84.9 °F 90.7 °F 72.0 °F 65% 30.03 in 10.0 mi East 8.1 mph - N/A   Overcast
1:54 PM 86.0 °F 92.2 °F 72.0 °F 63% 30.01 in 10.0 mi East 9.2 mph - N/A   Clear
2:54 PM 87.1 °F 93.6 °F 72.0 °F 61% 30.00 in 10.0 mi ENE 9.2 mph - N/A   Clear
3:54 PM 87.1 °F 93.6 °F 72.0 °F 61% 29.99 in 10.0 mi East 9.2 mph - N/A   Clear
4:54 PM 84.9 °F 89.4 °F 70.0 °F 61% 29.99 in 10.0 mi ENE 8.1 mph - N/A   Scattered Clouds
5:54 PM 84.9 °F 88.8 °F 69.1 °F 59% 29.99 in 10.0 mi ENE 9.2 mph - N/A   Clear
6:54 PM 84.0 °F 88.4 °F 70.0 °F 63% 29.99 in 10.0 mi East 6.9 mph - N/A   Clear
7:54 PM 81.0 °F 84.9 °F 71.1 °F 72% 29.99 in 10.0 mi East 9.2 mph - N/A   Clear
8:54 PM 79.0 °F - 71.1 °F 77% 30.00 in 10.0 mi ENE 4.6 mph - N/A   Clear
9:54 PM 78.1 °F - 71.1 °F 79% 30.01 in 10.0 mi ENE 4.6 mph - N/A   Clear
10:54 PM 75.9 °F - 71.1 °F 85% 30.03 in 10.0 mi ENE 3.5 mph - N/A   Clear
11:54 PM 75.0 °F - 72.0 °F 90% 30.02 in 10.0 mi ENE 4.6 mph - N/A   Clear